Location: Houhaj�rvi
(61.2833°N, 23.0000°E)
Time: 19:04:44
(UTC+00:00)

NOSS 2-3 (D) - Pass Details

Date: 27 February 2020
Orbit: 583 x 1629 km, 63.4° (Epoch: 25 March)

Event Time Altitude Azimuth Distance (km) Brightness Sun altitude
Rises 19:10:18 0° 253° (WSW) 2,994 7.7 -24.6°
Reaches altitude 10° 19:12:24 10° 254° (WSW) 2,168 6.9 -24.8°
Maximum altitude 19:17:19 83° 343° (NNW) 832 4.1 -25.3°
Enters shadow 19:18:45 53° 63° (ENE) 1,054 4.4 -25.4°
